AEE663 LIMC-LGAV

Flight info

Callsign AEE663
Flight time 2h 0m
Altitude 37000
Route SRN6SXROBAS6Q/35R ROBAS DCT IBNAN DCT IPDAB DCT IBENI DCT KOFER DCT UNDER DCT PINDO DCT PIKOS UL607 XORKI
Aircraft A20N/M-SDE2E3FGHIRWXY/LB1

Departure

Time 2026-05-03 20:19
Airport Milan Malpensa International Airport (LIMC)

Arrival

Time 2026-05-03 22:19
Airport Athens Eleftherios Venizelos International Airport (LGAV)
Time Latitude Longitude Altitude Speed Heading
2026-05-03 20:15 45.62082 8.71980 779 ft 19 kts 169°
2026-05-03 20:15 45.61935 8.72020 779 ft 24 kts 169°
2026-05-03 20:15 45.61752 8.72067 779 ft 29 kts 173°
2026-05-03 20:15 45.61536 8.72120 779 ft 34 kts 168°
2026-05-03 20:16 45.61294 8.72189 779 ft 37 kts 168°
2026-05-03 20:16 45.61044 8.72263 779 ft 29 kts 161°
2026-05-03 20:16 45.61009 8.72389 779 ft 15 kts 62°
2026-05-03 20:16 45.61058 8.72557 779 ft 24 kts 78°
2026-05-03 20:17 45.61104 8.72871 779 ft 38 kts 78°
2026-05-03 20:17 45.61218 8.73127 779 ft 32 kts 34°
2026-05-03 20:17 45.61407 8.73255 779 ft 27 kts 355°
2026-05-03 20:17 45.61591 8.73237 779 ft 17 kts 38°
2026-05-03 20:18 45.61605 8.73458 779 ft 35 kts 103°
2026-05-03 20:18 45.61605 8.73695 779 ft 15 kts 52°
2026-05-03 20:18 45.61783 8.73687 779 ft 59 kts 349°
2026-05-03 20:18 45.62579 8.73463 795 ft 168 kts 349°
2026-05-03 20:19 45.63931 8.73124 1482 ft 231 kts 351°
2026-05-03 20:19 45.65694 8.73278 2232 ft 253 kts 13°
2026-05-03 20:19 45.67022 8.74469 2918 ft 207 kts 45°
2026-05-03 20:19 45.67746 8.76188 3714 ft 208 kts 61°
2026-05-03 20:20 45.68530 8.77961 4470 ft 213 kts 56°
2026-05-03 20:20 45.69471 8.79588 5220 ft 213 kts 49°
2026-05-03 20:20 45.70562 8.81070 5955 ft 221 kts 42°
2026-05-03 20:20 45.71728 8.82526 6703 ft 224 kts 45°
2026-05-03 20:21 45.72567 8.84369 7421 ft 223 kts 69°
2026-05-03 20:21 45.72645 8.86551 8171 ft 223 kts 102°
2026-05-03 20:21 45.71996 8.88556 8962 ft 226 kts 123°
2026-05-03 20:21 45.71047 8.90391 9737 ft 227 kts 131°
2026-05-03 20:22 45.70044 8.92134 10431 ft 229 kts 133°
2026-05-03 20:22 45.68980 8.93989 10958 ft 264 kts 133°
2026-05-03 20:22 45.67728 8.96233 11489 ft 310 kts 131°
2026-05-03 20:22 45.66343 8.98758 12008 ft 333 kts 131°
2026-05-03 20:23 45.64844 9.01374 12516 ft 345 kts 132°
2026-05-03 20:23 45.63282 9.04013 13019 ft 351 kts 133°
2026-05-03 20:23 45.61676 9.06668 13522 ft 355 kts 134°
2026-05-03 20:23 45.60045 9.09321 14022 ft 358 kts 134°
2026-05-03 20:24 45.58389 9.11984 14523 ft 361 kts 135°
2026-05-03 20:24 45.56712 9.14656 15023 ft 364 kts 135°
2026-05-03 20:24 45.54993 9.17379 15530 ft 367 kts 135°
2026-05-03 20:24 45.53274 9.20086 16031 ft 371 kts 135°
2026-05-03 20:25 45.51532 9.22820 16534 ft 374 kts 136°
2026-05-03 20:25 45.49775 9.25570 17037 ft 378 kts 136°
2026-05-03 20:25 45.47998 9.28344 17535 ft 382 kts 135°
2026-05-03 20:25 45.46195 9.31149 18034 ft 386 kts 135°
2026-05-03 20:26 45.44374 9.33982 18531 ft 391 kts 135°
2026-05-03 20:26 45.42530 9.36847 19031 ft 396 kts 135°
2026-05-03 20:26 45.40657 9.39755 19534 ft 400 kts 135°
2026-05-03 20:26 45.38767 9.42686 20036 ft 404 kts 135°
2026-05-03 20:27 45.36864 9.45634 20536 ft 407 kts 135°
2026-05-03 20:27 45.34944 9.48606 21037 ft 410 kts 135°
2026-05-03 20:27 45.33007 9.51602 21539 ft 413 kts 135°
2026-05-03 20:27 45.31035 9.54648 22046 ft 416 kts 135°
2026-05-03 20:28 45.29070 9.57679 22547 ft 418 kts 135°
2026-05-03 20:28 45.27095 9.60720 23048 ft 421 kts 135°
2026-05-03 20:28 45.25110 9.63776 23548 ft 424 kts 135°
2026-05-03 20:28 45.23108 9.66853 24048 ft 426 kts 135°
2026-05-03 20:29 45.21163 9.70055 24548 ft 432 kts 129°
2026-05-03 20:29 45.19581 9.73684 25054 ft 438 kts 121°
2026-05-03 20:29 45.18297 9.77638 25568 ft 444 kts 114°
2026-05-03 20:29 45.17236 9.81754 26077 ft 449 kts 110°
2026-05-03 20:30 45.16319 9.86003 26588 ft 453 kts 107°
2026-05-03 20:30 45.15497 9.90318 27096 ft 457 kts 106°
2026-05-03 20:30 45.14724 9.94708 27600 ft 461 kts 105°
2026-05-03 20:30 45.13976 9.99128 28101 ft 465 kts 104°
2026-05-03 20:31 45.13220 10.03596 28603 ft 469 kts 105°
2026-05-03 20:31 45.12403 10.08075 29106 ft 472 kts 106°
2026-05-03 20:31 45.11522 10.12625 29613 ft 476 kts 107°
2026-05-03 20:31 45.10612 10.17144 30114 ft 480 kts 107°
2026-05-03 20:32 45.09670 10.21706 30519 ft 485 kts 108°
2026-05-03 20:32 45.08714 10.26272 30798 ft 485 kts 108°
2026-05-03 20:32 45.07751 10.30826 31053 ft 481 kts 107°
2026-05-03 20:32 45.06792 10.35332 31303 ft 476 kts 107°
2026-05-03 20:33 45.05839 10.39795 31551 ft 473 kts 107°
2026-05-03 20:33 45.04891 10.44226 31799 ft 471 kts 108°
2026-05-03 20:33 45.03940 10.48666 32049 ft 471 kts 108°
2026-05-03 20:33 45.02992 10.53088 32299 ft 472 kts 108°
2026-05-03 20:34 45.02036 10.57543 32549 ft 474 kts 108°
2026-05-03 20:34 45.01080 10.61991 32799 ft 476 kts 108°
2026-05-03 20:34 45.00117 10.66471 33049 ft 478 kts 108°
2026-05-03 20:34 44.99148 10.70974 33300 ft 480 kts 108°
2026-05-03 20:35 44.98176 10.75484 33550 ft 482 kts 108°
2026-05-03 20:35 44.97195 10.80005 33800 ft 484 kts 108°
2026-05-03 20:35 44.96117 10.84514 34055 ft 486 kts 110°
2026-05-03 20:35 44.94952 10.88989 34309 ft 488 kts 112°
2026-05-03 20:36 44.93729 10.93451 34561 ft 490 kts 112°
2026-05-03 20:36 44.92446 10.97987 34815 ft 492 kts 113°
2026-05-03 20:36 44.91159 11.02446 35064 ft 494 kts 114°
2026-05-03 20:36 44.89850 11.06926 35315 ft 496 kts 114°
2026-05-03 20:37 44.88523 11.11432 35565 ft 498 kts 112°
2026-05-03 20:37 44.87188 11.15938 35816 ft 499 kts 112°
2026-05-03 20:37 44.85852 11.20438 36065 ft 500 kts 112°
2026-05-03 20:37 44.84559 11.24800 36305 ft 502 kts 114°
2026-05-03 20:38 44.83164 11.29496 36563 ft 505 kts 113°
2026-05-03 20:38 44.81806 11.34061 36809 ft 507 kts 113°
2026-05-03 20:38 44.80444 11.38634 36949 ft 507 kts 113°
2026-05-03 20:39 44.77720 11.47764 37082 ft 505 kts 113°
2026-05-03 20:39 44.74986 11.56911 37080 ft 503 kts 113°
2026-05-03 20:40 44.72276 11.65951 37079 ft 502 kts 113°
2026-05-03 20:40 44.69569 11.74954 37077 ft 500 kts 113°
2026-05-03 20:41 44.66865 11.83918 37067 ft 498 kts 112°
2026-05-03 20:41 44.64163 11.92845 37067 ft 497 kts 112°
2026-05-03 20:42 44.61465 12.01739 37042 ft 496 kts 112°
2026-05-03 20:42 44.58761 12.10622 37034 ft 496 kts 113°
2026-05-03 20:43 44.56075 12.19415 37028 ft 495 kts 113°
2026-05-03 20:43 44.53343 12.28328 37020 ft 495 kts 112°
2026-05-03 20:44 44.50623 12.37166 37018 ft 493 kts 112°
2026-05-03 20:44 44.47911 12.45953 37025 ft 492 kts 112°
2026-05-03 20:45 44.45198 12.54714 37053 ft 491 kts 112°
2026-05-03 20:45 44.42482 12.63458 37050 ft 491 kts 112°
2026-05-03 20:46 44.39763 12.72181 37065 ft 490 kts 112°
2026-05-03 20:46 44.37014 12.80968 37067 ft 491 kts 112°
2026-05-03 20:47 44.34282 12.89673 37063 ft 491 kts 112°
2026-05-03 20:47 44.31530 12.98412 37075 ft 491 kts 112°
2026-05-03 20:48 44.28778 13.07125 37078 ft 491 kts 112°
2026-05-03 20:48 44.26017 13.15836 37096 ft 491 kts 112°
2026-05-03 20:49 44.23249 13.24535 37110 ft 492 kts 112°
2026-05-03 20:49 44.20473 13.33232 37104 ft 492 kts 112°
2026-05-03 20:50 44.17668 13.41988 37107 ft 492 kts 112°
2026-05-03 20:50 44.14881 13.50665 37111 ft 492 kts 112°
2026-05-03 20:51 44.12081 13.59353 37111 ft 492 kts 112°
2026-05-03 20:51 44.09276 13.68027 37111 ft 492 kts 112°
2026-05-03 20:52 44.06468 13.76682 37111 ft 492 kts 112°
2026-05-03 20:52 44.03665 13.85291 37111 ft 487 kts 113°
2026-05-03 20:53 44.00721 13.93726 37113 ft 486 kts 115°
2026-05-03 20:53 43.98048 14.00659 37112 ft 488 kts 117°
2026-05-03 20:54 43.94735 14.08911 37111 ft 491 kts 117°
2026-05-03 20:54 43.89680 14.21251 37111 ft 492 kts 118°
2026-05-03 20:55 43.86283 14.29483 37111 ft 493 kts 117°
2026-05-03 20:55 43.82859 14.37760 37112 ft 492 kts 117°
2026-05-03 20:56 43.79462 14.45960 37111 ft 492 kts 118°
2026-05-03 20:56 43.76063 14.54152 37111 ft 491 kts 118°
2026-05-03 20:57 43.72662 14.62334 37112 ft 491 kts 117°
2026-05-03 20:57 43.69252 14.70518 37111 ft 492 kts 117°
2026-05-03 20:58 43.65840 14.78691 37107 ft 492 kts 117°
2026-05-03 20:58 43.62399 14.86914 37105 ft 492 kts 118°
2026-05-03 20:59 43.58972 14.95082 37106 ft 492 kts 118°
2026-05-03 20:59 43.55544 15.03230 37103 ft 492 kts 118°
2026-05-03 21:00 43.52685 15.10009 37102 ft 492 kts 118°
2026-05-03 21:00 43.48662 15.19519 37103 ft 492 kts 118°
2026-05-03 21:01 43.45213 15.27651 37102 ft 492 kts 118°
2026-05-03 21:01 43.41757 15.35775 37101 ft 492 kts 118°
2026-05-03 21:02 43.38286 15.43912 37099 ft 491 kts 118°
2026-05-03 21:02 43.34833 15.51985 37098 ft 491 kts 118°
2026-05-03 21:03 43.31365 15.60068 37098 ft 491 kts 118°
2026-05-03 21:03 43.30641 15.61753 37098 ft 491 kts 118°
2026-05-03 21:04 43.30619 15.61806 37098 ft 491 kts 118°
2026-05-03 21:04 43.27179 15.69800 37098 ft 491 kts 118°
2026-05-03 21:05 43.23684 15.77898 37099 ft 491 kts 118°
2026-05-03 21:05 43.20206 15.85929 37100 ft 491 kts 117°
2026-05-03 21:06 43.16725 15.93948 37101 ft 490 kts 117°
2026-05-03 21:06 43.13245 16.01947 37103 ft 490 kts 117°
2026-05-03 21:07 43.09760 16.09936 37104 ft 486 kts 118°
2026-05-03 21:07 43.06312 16.17810 37101 ft 482 kts 117°
2026-05-03 21:08 43.02867 16.25665 37107 ft 484 kts 117°
2026-05-03 21:08 42.99392 16.33567 37109 ft 487 kts 117°
2026-05-03 21:09 42.95899 16.41490 37108 ft 488 kts 117°
2026-05-03 21:09 42.92392 16.49424 37108 ft 489 kts 117°
2026-05-03 21:10 42.88854 16.57403 37109 ft 489 kts 117°
2026-05-03 21:10 42.85357 16.65270 37107 ft 489 kts 117°
2026-05-03 21:11 42.81814 16.73217 37107 ft 488 kts 117°
2026-05-03 21:11 42.78288 16.81104 37107 ft 488 kts 117°
2026-05-03 21:12 42.74761 16.88972 37108 ft 487 kts 117°
2026-05-03 21:12 42.71228 16.96831 37110 ft 487 kts 117°
2026-05-03 21:13 42.67689 17.04684 37111 ft 488 kts 117°
2026-05-03 21:13 42.64143 17.12535 37111 ft 488 kts 117°
2026-05-03 21:14 42.60590 17.20380 37111 ft 489 kts 117°
2026-05-03 21:14 42.57003 17.28276 37111 ft 489 kts 117°
2026-05-03 21:15 42.53440 17.36097 37112 ft 488 kts 117°
2026-05-03 21:15 42.49871 17.43914 37117 ft 488 kts 117°
2026-05-03 21:16 42.46292 17.51731 37116 ft 488 kts 117°
2026-05-03 21:16 42.42712 17.59531 37116 ft 488 kts 117°
2026-05-03 21:17 42.39735 17.66002 37117 ft 489 kts 117°
2026-05-03 21:17 42.35537 17.75102 37117 ft 489 kts 117°
2026-05-03 21:18 42.31938 17.82880 37120 ft 488 kts 117°
2026-05-03 21:18 42.28320 17.90678 37122 ft 487 kts 118°
2026-05-03 21:19 42.24744 17.98367 37120 ft 486 kts 118°
2026-05-03 21:19 42.21124 18.06129 37120 ft 486 kts 117°
2026-05-03 21:20 42.17520 18.13841 37125 ft 488 kts 117°
2026-05-03 21:20 42.13898 18.21572 37127 ft 489 kts 117°
2026-05-03 21:21 42.10261 18.29316 37128 ft 490 kts 117°
2026-05-03 21:21 42.06624 18.37034 37129 ft 489 kts 117°
2026-05-03 21:22 42.02987 18.44740 37131 ft 484 kts 120°
2026-05-03 21:22 41.99402 18.52301 37129 ft 478 kts 117°
2026-05-03 21:23 41.95823 18.59832 37140 ft 481 kts 117°
2026-05-03 21:23 41.91967 18.67301 37143 ft 488 kts 123°
2026-05-03 21:24 41.87667 18.74393 37144 ft 492 kts 126°
2026-05-03 21:24 41.83172 18.81331 37141 ft 494 kts 127°
2026-05-03 21:25 41.78607 18.88205 37140 ft 495 kts 128°
2026-05-03 21:25 41.74020 18.95058 37141 ft 495 kts 128°
2026-05-03 21:26 41.69429 19.01907 37140 ft 496 kts 127°
2026-05-03 21:26 41.64813 19.08802 37140 ft 500 kts 127°
2026-05-03 21:27 41.60143 19.15780 37140 ft 502 kts 127°
2026-05-03 21:27 41.55487 19.22736 37141 ft 503 kts 127°
2026-05-03 21:28 41.50823 19.29696 37140 ft 504 kts 127°
2026-05-03 21:28 41.46156 19.36650 37140 ft 504 kts 127°
2026-05-03 21:29 41.41463 19.43632 37141 ft 504 kts 127°
2026-05-03 21:29 41.36780 19.50585 37140 ft 504 kts 127°
2026-05-03 21:30 41.32099 19.57522 37140 ft 504 kts 128°
2026-05-03 21:30 41.27422 19.64439 37140 ft 504 kts 128°
2026-05-03 21:31 41.22735 19.71356 37141 ft 504 kts 128°
2026-05-03 21:31 41.18017 19.78302 37140 ft 503 kts 128°
2026-05-03 21:32 41.13362 19.85140 37141 ft 502 kts 128°
2026-05-03 21:32 41.08687 19.92030 37141 ft 501 kts 127°
2026-05-03 21:33 41.04231 19.99163 37144 ft 499 kts 124°
2026-05-03 21:33 40.99973 20.06395 37143 ft 499 kts 123°
2026-05-03 21:34 40.95774 20.13686 37143 ft 498 kts 122°
2026-05-03 21:34 40.91596 20.20980 37145 ft 498 kts 122°
2026-05-03 21:35 40.87415 20.28269 37146 ft 498 kts 122°
2026-05-03 21:35 40.83226 20.35544 37145 ft 498 kts 123°
2026-05-03 21:36 40.79020 20.42818 37146 ft 498 kts 123°
2026-05-03 21:36 40.74819 20.50053 37151 ft 498 kts 123°
2026-05-03 21:37 40.70604 20.57289 37151 ft 494 kts 124°
2026-05-03 21:37 40.66414 20.64449 37146 ft 490 kts 123°
2026-05-03 21:38 40.62244 20.71558 37156 ft 493 kts 123°
2026-05-03 21:38 40.58037 20.78720 37161 ft 498 kts 123°
2026-05-03 21:39 40.53790 20.85932 37163 ft 500 kts 123°
2026-05-03 21:39 40.49481 20.93124 37167 ft 503 kts 126°
2026-05-03 21:40 40.44643 20.99798 37169 ft 507 kts 133°
2026-05-03 21:40 40.39466 21.06058 37171 ft 508 kts 135°
2026-05-03 21:41 40.34140 21.12154 37170 ft 508 kts 136°
2026-05-03 21:41 40.28777 21.18180 37170 ft 508 kts 136°
2026-05-03 21:42 40.23414 21.24190 37170 ft 508 kts 136°
2026-05-03 21:42 40.18023 21.30249 37170 ft 508 kts 136°
2026-05-03 21:43 40.12675 21.36285 37170 ft 509 kts 136°
2026-05-03 21:43 40.07316 21.42349 37170 ft 510 kts 136°
2026-05-03 21:44 40.01965 21.48415 37170 ft 511 kts 136°
2026-05-03 21:44 39.96594 21.54505 37170 ft 511 kts 136°
2026-05-03 21:45 39.91226 21.60578 37170 ft 512 kts 136°
2026-05-03 21:45 39.85857 21.66639 37170 ft 512 kts 136°
2026-05-03 21:46 39.80475 21.72700 37170 ft 512 kts 136°
2026-05-03 21:46 39.75094 21.78746 37170 ft 512 kts 136°
2026-05-03 21:47 39.70626 21.83757 37170 ft 512 kts 136°
2026-05-03 21:47 39.64359 21.90772 37170 ft 513 kts 137°
2026-05-03 21:48 39.59835 21.95826 37170 ft 514 kts 137°
2026-05-03 21:48 39.54421 22.01860 37170 ft 514 kts 137°
2026-05-03 21:49 39.49669 22.07623 37165 ft 510 kts 126°
2026-05-03 21:49 39.44977 22.14526 37174 ft 514 kts 133°
2026-05-03 21:50 39.39619 22.20658 37174 ft 516 kts 138°
2026-05-03 21:50 39.34035 22.26478 37169 ft 517 kts 140°
2026-05-03 21:51 39.28361 22.32264 37167 ft 517 kts 140°
2026-05-03 21:51 39.22745 22.38024 37166 ft 516 kts 139°
2026-05-03 21:52 39.17164 22.43820 37168 ft 513 kts 139°
2026-05-03 21:52 39.11691 22.49575 37167 ft 504 kts 139°
2026-05-03 21:53 39.06331 22.55263 37165 ft 497 kts 138°
2026-05-03 21:53 39.01003 22.60961 37165 ft 500 kts 138°
2026-05-03 21:54 38.95648 22.66719 37166 ft 505 kts 138°
2026-05-03 21:54 38.90264 22.72522 37166 ft 507 kts 138°
2026-05-03 21:55 38.84855 22.78357 37165 ft 508 kts 139°
2026-05-03 21:55 38.79469 22.84169 37164 ft 506 kts 139°
2026-05-03 21:56 38.74070 22.89987 37163 ft 503 kts 139°
2026-05-03 21:56 38.68735 22.95729 36957 ft 497 kts 139°
2026-05-03 21:57 38.66107 22.98552 36450 ft 491 kts 139°
2026-05-03 21:57 38.63524 23.01325 35946 ft 479 kts 139°
2026-05-03 21:57 38.61004 23.04025 35443 ft 467 kts 139°
2026-05-03 21:57 38.58544 23.06659 34940 ft 457 kts 138°
2026-05-03 21:58 38.56146 23.09224 34442 ft 446 kts 138°
2026-05-03 21:58 38.53873 23.11651 33881 ft 425 kts 138°
2026-05-03 21:58 38.51601 23.14075 33210 ft 410 kts 137°
2026-05-03 21:58 38.49441 23.16378 32537 ft 401 kts 137°
2026-05-03 21:59 38.47321 23.18640 31864 ft 396 kts 136°
2026-05-03 21:59 38.45228 23.20873 31193 ft 393 kts 136°
2026-05-03 21:59 38.43119 23.23125 30511 ft 390 kts 136°
2026-05-03 21:59 38.41045 23.25338 29836 ft 388 kts 135°
2026-05-03 22:00 38.38985 23.27538 29164 ft 384 kts 137°
2026-05-03 22:00 38.36959 23.29701 28492 ft 378 kts 137°
2026-05-03 22:00 38.34964 23.31826 27818 ft 371 kts 137°
2026-05-03 22:00 38.33002 23.33913 27144 ft 364 kts 137°
2026-05-03 22:01 38.31079 23.35955 26470 ft 357 kts 137°
2026-05-03 22:01 38.29312 23.37831 25838 ft 350 kts 137°
2026-05-03 22:01 38.27457 23.39799 25163 ft 344 kts 137°
2026-05-03 22:01 38.25640 23.41726 24489 ft 338 kts 137°
2026-05-03 22:02 38.23854 23.43620 23815 ft 332 kts 137°
2026-05-03 22:02 38.22102 23.45478 23142 ft 327 kts 138°
2026-05-03 22:02 38.20338 23.47346 22457 ft 324 kts 139°
2026-05-03 22:02 38.19559 23.48117 22160 ft 323 kts 141°
2026-05-03 22:03 38.17712 23.49712 21488 ft 320 kts 146°
2026-05-03 22:03 38.16614 23.50562 21099 ft 318 kts 148°
2026-05-03 22:03 38.15412 23.51438 20676 ft 316 kts 150°
2026-05-03 22:03 38.13500 23.52753 20004 ft 312 kts 152°
2026-05-03 22:04 38.11585 23.54008 19329 ft 307 kts 152°
2026-05-03 22:04 38.10325 23.54811 18882 ft 305 kts 153°
2026-05-03 22:04 38.08488 23.55963 18225 ft 300 kts 153°
2026-05-03 22:04 38.06629 23.57112 17551 ft 296 kts 154°
2026-05-03 22:05 38.04787 23.58240 16875 ft 292 kts 154°
2026-05-03 22:05 38.02887 23.59053 16184 ft 288 kts 169°
2026-05-03 22:05 38.00896 23.59242 15524 ft 284 kts 180°
2026-05-03 22:05 37.98924 23.59243 14853 ft 282 kts 182°
2026-05-03 22:06 37.97004 23.59203 14189 ft 279 kts 183°
2026-05-03 22:06 37.95069 23.59153 13512 ft 276 kts 183°
2026-05-03 22:06 37.93155 23.59099 12835 ft 273 kts 183°
2026-05-03 22:06 37.91254 23.59042 12157 ft 271 kts 183°
2026-05-03 22:07 37.89395 23.58981 11488 ft 269 kts 183°
2026-05-03 22:07 37.87527 23.58920 10812 ft 267 kts 183°
2026-05-03 22:07 37.85660 23.58848 10133 ft 267 kts 183°
2026-05-03 22:07 37.83831 23.58768 9466 ft 266 kts 183°
2026-05-03 22:08 37.81973 23.58685 8781 ft 263 kts 183°
2026-05-03 22:08 37.80161 23.58605 8110 ft 261 kts 183°
2026-05-03 22:08 37.78491 23.58530 7485 ft 259 kts 183°
2026-05-03 22:08 37.76694 23.58450 6811 ft 258 kts 183°
2026-05-03 22:09 37.75096 23.58377 6209 ft 257 kts 183°
2026-05-03 22:09 37.73319 23.58294 5535 ft 256 kts 183°
2026-05-03 22:09 37.71548 23.58206 4861 ft 255 kts 183°
2026-05-03 22:10 37.68027 23.58038 3505 ft 252 kts 180°
2026-05-03 22:10 37.66393 23.58685 2983 ft 241 kts 149°
2026-05-03 22:10 37.65374 23.60202 2980 ft 223 kts 115°
2026-05-03 22:10 37.65157 23.62111 3012 ft 224 kts 83°
2026-05-03 22:11 37.65545 23.64006 3028 ft 224 kts 68°
2026-05-03 22:11 37.66123 23.65792 3005 ft 214 kts 62°
2026-05-03 22:11 37.66753 23.67450 2998 ft 207 kts 59°
2026-05-03 22:11 37.67468 23.69011 2999 ft 204 kts 54°
2026-05-03 22:12 37.68299 23.70427 3000 ft 200 kts 47°
2026-05-03 22:12 37.69229 23.71721 3001 ft 198 kts 42°
2026-05-03 22:12 37.70238 23.72932 3001 ft 197 kts 38°
2026-05-03 22:12 37.71257 23.74040 2999 ft 196 kts 36°
2026-05-03 22:13 37.72327 23.75135 3000 ft 195 kts 34°
2026-05-03 22:13 37.73032 23.75835 3002 ft 194 kts 34°
2026-05-03 22:13 37.73705 23.76493 2998 ft 194 kts 34°
2026-05-03 22:13 37.74779 23.77529 3000 ft 193 kts 34°
2026-05-03 22:14 37.75840 23.78546 3000 ft 192 kts 33°
2026-05-03 22:14 37.76546 23.79221 3001 ft 192 kts 33°
2026-05-03 22:14 37.77470 23.80102 3000 ft 192 kts 33°
2026-05-03 22:14 37.78526 23.81108 3000 ft 192 kts 33°
2026-05-03 22:15 37.79589 23.82124 3001 ft 192 kts 33°
2026-05-03 22:15 37.80656 23.83140 3001 ft 191 kts 33°
2026-05-03 22:15 37.81705 23.84141 3001 ft 191 kts 33°
2026-05-03 22:15 37.82766 23.85153 3004 ft 188 kts 33°
2026-05-03 22:16 37.83747 23.86106 3067 ft 171 kts 34°
2026-05-03 22:16 37.84635 23.86994 3085 ft 157 kts 34°
2026-05-03 22:16 37.85480 23.87858 2944 ft 155 kts 35°
2026-05-03 22:16 37.86326 23.88713 2693 ft 154 kts 34°
2026-05-03 22:17 37.87145 23.89551 2335 ft 150 kts 34°
2026-05-03 22:17 37.87960 23.90377 1958 ft 148 kts 33°
2026-05-03 22:17 37.88786 23.91148 1603 ft 146 kts 32°
2026-05-03 22:17 37.89610 23.91883 1296 ft 143 kts 31°
2026-05-03 22:18 37.90417 23.92591 1010 ft 141 kts 32°
2026-05-03 22:18 37.91199 23.93281 740 ft 137 kts 33°
2026-05-03 22:18 37.91968 23.93974 500 ft 131 kts 36°
2026-05-03 22:18 37.92677 23.94645 328 ft 122 kts 37°
2026-05-03 22:19 37.93309 23.95235 320 ft 103 kts 36°
2026-05-03 22:19 37.93734 23.95628 320 ft 51 kts 31°
2026-05-03 22:19 37.93974 23.95724 320 ft 22 kts 352°
2026-05-03 22:19 37.94095 23.95618 320 ft 24 kts 307°
2026-05-03 22:20 37.94156 23.95486 320 ft 5 kts 259°
2026-05-03 22:20 37.94122 23.95448 320 ft 10 kts 217°
2026-05-03 22:20 37.94090 23.95418 320 ft 2 kts 217°
2026-05-03 22:20 37.94090 23.95417 320 ft 0 kts 217°